Regional Weather Roundup
Issued by NWS

Home | Current Version | Previous Version | Text Only | Print | Product List | Glossary Off
Versions: 1 2 3 4 5 6 7 8 9 10 11 12 13 14 15 16 17 18 19 20 21 22 23 24 25 26 27 28 29 30 31 32 33 34 35 36 37 38 39 40 41 42 43 44 45 46 47

000
ASUS45 KBOU 312007
RWRCO

WEATHER ROUNDUP FOR COLORADO
NATIONAL WEATHER SERVICE DENVER/BOULDER CO
100 PM MST SAT JAN 31 2015

NOTE: "FAIR" INDICATES FEW OR NO CLOUDS BELOW 12000 FEET WITH NO
SIGNIFICANT WEATHER AND/OR OBSTRUCTIONS TO VISIBILITY.

COZ001>005-013-030-031-312100-
...NORTHWEST COLORADO...

CITY           SKY/WX    TMP DP  RH WIND       PRES   REMARKS
CRAIG          CLOUDY    33  28  81 W12       29.92S WCI  24
HAYDEN         CLOUDY    30  27  86 NW7       29.90F WCI  23
MEEKER         CLOUDY    34  30  85 SW6       29.92S WCI  29
MOUNT WERNER   NOT AVBL
STEAMBOAT SPGS CLOUDY    31  28  88 S5        29.88F WCI  26
WALDEN         CLOUDY    30  27  86 N9        29.84F WCI  22
$$

COZ006>008-011-312100-
...WEST CENTRAL VALLEYS...

CITY           SKY/WX    TMP DP  RH WIND       PRES   REMARKS
GRAND JUNCTION CLOUDY    39  37  92 W5        29.92F
MONTROSE       LGT RAIN  37  34  89 CALM      29.92F
EAGLE          LGT SNOW  37  36  93 CALM      29.88F FOG
RIFLE          CLOUDY    39  35  86 W3        29.89F
DELTA          LGT RAIN  42  38  86 CALM      29.90F
NUCLA          RAIN      37  36  93 W3        29.95F
$$

COZ017>023-064>068-312100-
...SOUTHWEST COLORADO...

CITY           SKY/WX    TMP DP  RH WIND       PRES   REMARKS
DURANGO        CLOUDY    36  32  85 SW6       29.88F
CORTEZ         CLOUDY    39  36  89 CALM      29.90F
PAGOSA SPRINGS CLOUDY    37  34  89 CALM      29.88S
TELLURIDE      LGT SNOW  30  30 100 W12       29.91F WCI  21
WOLF CREEK PAS SNOW      23  23 100 SW9       29.92F VSB<1/4 WCI  13
$$

COZ009-010-012-014-032>034-037-058>063-312100-
...CENTRAL COLORADO...

CITY           SKY/WX    TMP DP  RH WIND       PRES   REMARKS
ASPEN          LGT SNOW  33  30  88 N6        29.85F FOG     WCI  28
BUENA VISTA    LGT SNOW  33  31  90 CALM      29.81F
COPPER MTN     SNOW      28  23  80 W21G26    29.87F VSB<1/4 WCI  15
BERTHOUD PASS  CLOUDY    18  12  79 N12G30    29.85F WCI   5
COTTONWOOD PAS FOG       32  32 100 CALM      29.83F VSB 1/4
GUNNISON       CLOUDY    34  28  80 CALM      29.87F
KREMMLING      LGT SNOW  34  30  86 CALM      29.86F
LEADVILLE      CLOUDY    31  24  75 NW8       29.82F WCI  23
MONARCH PASS   SNOW      23  21  93 MISG      29.96F VSB<1/4
SALIDA         CLOUDY    37  35  92 N5        29.88F
SUNLIGHT       SNOW      28  27  93 W3          N/A  VSB<1/4
WILKERSON PASS CLOUDY   N/A N/A N/A NW6       29.85F HAZE
$$

COZ069>075-312100-
...SAN LUIS VALLEY/SANGRE DE CRISTO MOUNTAINS...

CITY           SKY/WX    TMP DP  RH WIND       PRES   REMARKS
ALAMOSA        CLOUDY    33  29  85 SW5       29.83F WCI  29
LA VETA PASS   FOG       28  27  93 MISG      29.82F VSB 1/2
SAGUACHE       MIX PCPN  32  30  93 CALM      29.85F
$$

COZ035-036-038>040-312100-
...NORTHERN COLORADO FRONT RANGE...

CITY           SKY/WX    TMP DP  RH WIND       PRES   REMARKS
DENVER INTL AP CLOUDY    37  26  64 NW7       29.82F
DMNS CITY PARK   N/A     37  26  65 NE3       29.83F
AURORA         NOT AVBL
FRONT RANGE AP NOT AVBL
ERIE MUNI ARPT CLOUDY    39  27  62 N7        29.83F
BOULDER MUN AP CLOUDY    37  27  65 NE5       29.82F
CENTENNIAL     CLOUDY    35  27  72 N7        29.82F WCI  29
BROOMFIELD     CLOUDY    37  25  60 N7        29.83F
FORT COLLINS   CLOUDY    39  28  65 CALM      29.85F
LONGMONT       CLOUDY    43  27  52 N6        29.85F
$$

COZ041-046-047-076>085-087-088-312100-
...PIKES PEAK/PALMER DIVIDE AND SOUTHERN FOOTHILLS...

CITY           SKY/WX    TMP DP  RH WIND       PRES   REMARKS
COLO. SPRINGS  LGT SNOW  35  33  92 SW5       29.81F VSB 1   WCI  31
A. F. ACADEMY  LGT SNOW  34  29  82 N6        29.80F WCI  29
ELLICOTT       LGT SNOW N/A N/A N/A NW5       29.80F
FALCON         LGT SNOW  33  31  94 N6        29.81F WCI  27
FORT CARSON    LGT RAIN  37  32  81 N7        29.80F
LIMON          CLOUDY    38  26  62 NW10      29.80F
MONUMENT HILL  LGT SNOW  30  27  86 N6        29.79F WCI  24
TRINIDAD       MOSUNNY   45  31  58 E6        29.78F
$$

COZ042>045-048>051-090-091-312100-
...NORTHEAST COLORADO...

CITY           SKY/WX    TMP DP  RH WIND       PRES   REMARKS
GREELEY ARPT   CLOUDY    39  27  60 NW5       29.83F
AKRON          CLOUDY    35  33  92 N10       29.81F WCI  27
BURLINGTON     CLOUDY    37  32  82 NW12      29.81F
WRAY           CLOUDY    36  34  94 N6        29.82F
STERLING       DRIZZLE   36  34  93 NE5       29.83F
HOLYOKE        NOT AVBL
FORT MORGAN    CLOUDY    38  30  74 N3        29.84F
$$

COZ086-089-092>099-312100-
...SOUTHEAST COLORADO...

CITY           SKY/WX    TMP DP  RH WIND       PRES   REMARKS
PUEBLO         CLOUDY    44  33  65 E7        29.79F
LA JUNTA       CLOUDY    43  34  70 CALM      29.80F
LAMAR          CLOUDY    43  36  76 NW7       29.79F
SPRINGFIELD      N/A     43  35  73 SW6       29.79F
$$


USA.gov is the U.S. government's official web portal to all federal, state and local government web resources and services.